{"data":{"norad_id":68716,"intl_designator":"2026-081T","name":"STARLINK-36337","alt_names":[],"object_type":"PAYLOAD","status":"ACTIVE","operator":null,"country":"US","launch_date":"2026-04-14","launch_site_code":"AFETR","launch_vehicle":null,"mission":null,"orbit_class":"UNKNOWN","rcs_meters":null,"size_class":null,"mass_kg":null,"dimensions":null,"purposes":["comms"],"wikipedia_slug":null,"has_3d_model":false,"image_url":null,"decayed_at":null,"tle_current":{"epoch":"2026-05-24T23:57:50.230656Z","epoch_age_seconds":85766,"freshness":"FRESH","line1":"1 68716U 26081T   26144.99849804  .00069199  00000+0  12404-2 0  9999","line2":"2 68716  53.1597  40.5433 0000991  90.7001 269.4121 15.49328958  6415","mean_motion":15.49328958,"eccentricity":9.91e-5,"inclination_deg":53.1597,"raan_deg":40.5433,"arg_perigee_deg":90.7001,"mean_anomaly_deg":269.4121,"bstar":0.0012404,"rev_number":641,"period_min":92.943463850238,"perigee_km":418.01434650984,"apogee_km":419.36147720737,"semimajor_km":6796.8249118586,"source":"CELESTRAK","updated_at":"2026-05-25T13:38:22.001413Z"}}}